Terug naar catalogus

DELTA 1 DEB

ActiefSSO
NORAD 48088·DEBRIS·🇺🇸 United States

Gelanceerd Jul 29, 1976 vanaf Vandenberg Space Force Base

Loading…

Volgende Passages (komende 24 uur)

TLE

VerouderendSource: Space-Track

Epoch: Sep 9, 2026, 19:32 UTC

1 48088U 76077GT  26252.81416877 -.00000020  00000-0  21091-3 0  9993
2 48088 102.0536 280.2655 0115437 195.4125 341.3015 12.19251201569813

Volg DELTA 1 DEB in realtime met AllMySat

Download on the App Store